﻿測定場所 (Monitoring sites),日付 (Measurement date),時間 (Measurement time),線量率 最大値 (max) μGy/h,線量率 最小値 (min) μGy/h,線量率 平均値 (average) μGy/h,
江戸川 (Edogawa),2020-06-28,23:01～24:00,0.0457,0.0389,0.0426,
江戸川 (Edogawa),2020-06-28,22:01～23:00,0.0465,0.0402,0.0431,
江戸川 (Edogawa),2020-06-28,21:01～22:00,0.0455,0.0388,0.0425,
江戸川 (Edogawa),2020-06-28,20:01～21:00,0.0453,0.0403,0.0426,
江戸川 (Edogawa),2020-06-28,19:01～20:00,0.0455,0.0398,0.0424,
江戸川 (Edogawa),2020-06-28,18:01～19:00,0.0450,0.0386,0.0423,
江戸川 (Edogawa),2020-06-28,17:01～18:00,0.0453,0.0388,0.0420,
江戸川 (Edogawa),2020-06-28,16:01～17:00,0.0455,0.0392,0.0424,
江戸川 (Edogawa),2020-06-28,15:01～16:00,0.0448,0.0404,0.0427,
江戸川 (Edogawa),2020-06-28,14:01～15:00,0.0464,0.0399,0.0438,
江戸川 (Edogawa),2020-06-28,13:01～14:00,0.0539,0.0427,0.0478,
江戸川 (Edogawa),2020-06-28,12:01～13:00,0.0593,0.0479,0.0534,
江戸川 (Edogawa),2020-06-28,11:01～12:00,0.0623,0.0529,0.0573,
江戸川 (Edogawa),2020-06-28,10:01～11:00,0.0622,0.0505,0.0568,
江戸川 (Edogawa),2020-06-28,09:01～10:00,0.0533,0.0463,0.0490,
江戸川 (Edogawa),2020-06-28,08:01～09:00,0.0531,0.0457,0.0490,
江戸川 (Edogawa),2020-06-28,07:01～08:00,0.0551,0.0479,0.0508,
江戸川 (Edogawa),2020-06-28,06:01～07:00,0.0576,0.0492,0.0525,
江戸川 (Edogawa),2020-06-28,05:01～06:00,0.0571,0.0492,0.0536,
江戸川 (Edogawa),2020-06-28,04:01～05:00,0.0538,0.0441,0.0492,
江戸川 (Edogawa),2020-06-28,03:01～04:00,0.0524,0.0461,0.0486,
江戸川 (Edogawa),2020-06-28,02:01～03:00,0.0494,0.0419,0.0456,
江戸川 (Edogawa),2020-06-28,01:01～02:00,0.0477,0.0406,0.0440,
江戸川 (Edogawa),2020-06-28,00:01～01:00,0.0474,0.0411,0.0441,
江戸川 (Edogawa),2020-06-27,23:01～24:00,0.0466,0.0411,0.0437,
江戸川 (Edogawa),2020-06-27,22:01～23:00,0.0477,0.0414,0.0443,
江戸川 (Edogawa),2020-06-27,21:01～22:00,0.0469,0.0405,0.0441,
江戸川 (Edogawa),2020-06-27,20:01～21:00,0.0485,0.0408,0.0444,
江戸川 (Edogawa),2020-06-27,19:01～20:00,0.0473,0.0406,0.0442,
江戸川 (Edogawa),2020-06-27,18:01～19:00,0.0475,0.0410,0.0440,
江戸川 (Edogawa),2020-06-27,17:01～18:00,0.0480,0.0414,0.0440,
江戸川 (Edogawa),2020-06-27,16:01～17:00,0.0460,0.0408,0.0432,
江戸川 (Edogawa),2020-06-27,15:01～16:00,0.0459,0.0403,0.0430,
江戸川 (Edogawa),2020-06-27,14:01～15:00,0.0465,0.0402,0.0434,
江戸川 (Edogawa),2020-06-27,13:01～14:00,0.0471,0.0403,0.0429,
江戸川 (Edogawa),2020-06-27,12:01～13:00,0.0462,0.0409,0.0429,
江戸川 (Edogawa),2020-06-27,11:01～12:00,0.0464,0.0371,0.0426,
江戸川 (Edogawa),2020-06-27,10:01～11:00,0.0463,0.0399,0.0427,
江戸川 (Edogawa),2020-06-27,09:01～10:00,0.0454,0.0391,0.0427,
江戸川 (Edogawa),2020-06-27,08:01～09:00,0.0456,0.0399,0.0433,
江戸川 (Edogawa),2020-06-27,07:01～08:00,0.0464,0.0396,0.0430,
江戸川 (Edogawa),2020-06-27,06:01～07:00,0.0457,0.0402,0.0430,
江戸川 (Edogawa),2020-06-27,05:01～06:00,0.0451,0.0400,0.0427,
江戸川 (Edogawa),2020-06-27,04:01～05:00,0.0460,0.0404,0.0430,
江戸川 (Edogawa),2020-06-27,03:01～04:00,0.0456,0.0398,0.0427,
江戸川 (Edogawa),2020-06-27,02:01～03:00,0.0462,0.0403,0.0427,
江戸川 (Edogawa),2020-06-27,01:01～02:00,0.0456,0.0400,0.0430,
江戸川 (Edogawa),2020-06-27,00:01～01:00,0.0462,0.0396,0.0428,
江戸川 (Edogawa),2020-06-26,23:01～24:00,0.0466,0.0396,0.0428,
江戸川 (Edogawa),2020-06-26,22:01～23:00,0.0465,0.0393,0.0423,
江戸川 (Edogawa),2020-06-26,21:01～22:00,0.0455,0.0388,0.0429,
江戸川 (Edogawa),2020-06-26,20:01～21:00,0.0476,0.0401,0.0428,
江戸川 (Edogawa),2020-06-26,19:01～20:00,0.0457,0.0396,0.0423,
江戸川 (Edogawa),2020-06-26,18:01～19:00,0.0451,0.0404,0.0426,
江戸川 (Edogawa),2020-06-26,17:01～18:00,0.0464,0.0403,0.0427,
江戸川 (Edogawa),2020-06-26,16:01～17:00,0.0458,0.0393,0.0426,
江戸川 (Edogawa),2020-06-26,15:01～16:00,0.0470,0.0406,0.0429,
江戸川 (Edogawa),2020-06-26,14:01～15:00,0.0453,0.0398,0.0429,
江戸川 (Edogawa),2020-06-26,13:01～14:00,0.0458,0.0399,0.0431,
江戸川 (Edogawa),2020-06-26,12:01～13:00,0.0455,0.0400,0.0427,
江戸川 (Edogawa),2020-06-26,11:01～12:00,0.0455,0.0390,0.0426,
江戸川 (Edogawa),2020-06-26,10:01～11:00,0.0457,0.0392,0.0425,
江戸川 (Edogawa),2020-06-26,09:01～10:00,0.0453,0.0391,0.0423,
江戸川 (Edogawa),2020-06-26,08:01～09:00,0.0449,0.0395,0.0424,
江戸川 (Edogawa),2020-06-26,07:01～08:00,0.0445,0.0396,0.0424,
江戸川 (Edogawa),2020-06-26,06:01～07:00,0.0460,0.0397,0.0426,
江戸川 (Edogawa),2020-06-26,05:01～06:00,0.0453,0.0401,0.0426,
江戸川 (Edogawa),2020-06-26,04:01～05:00,0.0449,0.0384,0.0423,
江戸川 (Edogawa),2020-06-26,03:01～04:00,0.0455,0.0393,0.0422,
江戸川 (Edogawa),2020-06-26,02:01～03:00,0.0467,0.0387,0.0425,
江戸川 (Edogawa),2020-06-26,01:01～02:00,0.0460,0.0393,0.0432,
江戸川 (Edogawa),2020-06-26,00:01～01:00,0.0487,0.0411,0.0434,
江戸川 (Edogawa),2020-06-25,23:01～24:00,0.0461,0.0393,0.0426,
江戸川 (Edogawa),2020-06-25,22:01～23:00,0.0449,0.0400,0.0424,
江戸川 (Edogawa),2020-06-25,21:01～22:00,0.0450,0.0401,0.0425,
江戸川 (Edogawa),2020-06-25,20:01～21:00,0.0460,0.0403,0.0425,
江戸川 (Edogawa),2020-06-25,19:01～20:00,0.0467,0.0387,0.0422,
江戸川 (Edogawa),2020-06-25,18:01～19:00,0.0459,0.0396,0.0425,
江戸川 (Edogawa),2020-06-25,17:01～18:00,0.0452,0.0399,0.0421,
江戸川 (Edogawa),2020-06-25,16:01～17:00,0.0451,0.0396,0.0424,
江戸川 (Edogawa),2020-06-25,15:01～16:00,0.0453,0.0396,0.0422,
江戸川 (Edogawa),2020-06-25,14:01～15:00,0.0451,0.0396,0.0421,
江戸川 (Edogawa),2020-06-25,13:01～14:00,0.0470,0.0391,0.0422,
江戸川 (Edogawa),2020-06-25,12:01～13:00,0.0463,0.0386,0.0426,
江戸川 (Edogawa),2020-06-25,11:01～12:00,0.0462,0.0394,0.0429,
江戸川 (Edogawa),2020-06-25,10:01～11:00,0.0477,0.0394,0.0428,
江戸川 (Edogawa),2020-06-25,09:01～10:00,0.0465,0.0397,0.0434,
江戸川 (Edogawa),2020-06-25,08:01～09:00,0.0487,0.0422,0.0453,
江戸川 (Edogawa),2020-06-25,07:01～08:00,0.0486,0.0406,0.0442,
江戸川 (Edogawa),2020-06-25,06:01～07:00,0.0467,0.0410,0.0441,
江戸川 (Edogawa),2020-06-25,05:01～06:00,0.0471,0.0418,0.0442,
江戸川 (Edogawa),2020-06-25,04:01～05:00,0.0482,0.0408,0.0443,
江戸川 (Edogawa),2020-06-25,03:01～04:00,0.0468,0.0406,0.0437,
江戸川 (Edogawa),2020-06-25,02:01～03:00,0.0460,0.0397,0.0432,
江戸川 (Edogawa),2020-06-25,01:01～02:00,0.0451,0.0399,0.0427,
江戸川 (Edogawa),2020-06-25,00:01～01:00,0.0465,0.0395,0.0428,
江戸川 (Edogawa),2020-06-24,23:01～24:00,0.0483,0.0397,0.0437,
江戸川 (Edogawa),2020-06-24,22:01～23:00,0.0463,0.0401,0.0433,
江戸川 (Edogawa),2020-06-24,21:01～22:00,0.0462,0.0399,0.0428,
江戸川 (Edogawa),2020-06-24,20:01～21:00,0.0464,0.0402,0.0427,
江戸川 (Edogawa),2020-06-24,19:01～20:00,0.0459,0.0398,0.0428,
江戸川 (Edogawa),2020-06-24,18:01～19:00,0.0456,0.0396,0.0423,
江戸川 (Edogawa),2020-06-24,17:01～18:00,0.0471,0.0402,0.0428,
江戸川 (Edogawa),2020-06-24,16:01～17:00,0.0463,0.0397,0.0434,
江戸川 (Edogawa),2020-06-24,15:01～16:00,0.0475,0.0408,0.0431,
江戸川 (Edogawa),2020-06-24,14:01～15:00,0.0460,0.0403,0.0430,
江戸川 (Edogawa),2020-06-24,13:01～14:00,0.0467,0.0396,0.0427,
江戸川 (Edogawa),2020-06-24,12:01～13:00,0.0465,0.0393,0.0428,
江戸川 (Edogawa),2020-06-24,11:01～12:00,0.0464,0.0406,0.0430,
江戸川 (Edogawa),2020-06-24,10:01～11:00,0.0454,0.0402,0.0428,
江戸川 (Edogawa),2020-06-24,09:01～10:00,0.0455,0.0378,0.0424,
江戸川 (Edogawa),2020-06-24,08:01～09:00,0.0455,0.0395,0.0424,
江戸川 (Edogawa),2020-06-24,07:01～08:00,0.0450,0.0377,0.0422,
江戸川 (Edogawa),2020-06-24,06:01～07:00,0.0460,0.0402,0.0431,
江戸川 (Edogawa),2020-06-24,05:01～06:00,0.0457,0.0399,0.0428,
江戸川 (Edogawa),2020-06-24,04:01～05:00,0.0467,0.0398,0.0431,
江戸川 (Edogawa),2020-06-24,03:01～04:00,0.0461,0.0401,0.0429,
江戸川 (Edogawa),2020-06-24,02:01～03:00,0.0475,0.0389,0.0429,
江戸川 (Edogawa),2020-06-24,01:01～02:00,0.0472,0.0405,0.0430,
江戸川 (Edogawa),2020-06-24,00:01～01:00,0.0463,0.0384,0.0431,
江戸川 (Edogawa),2020-06-23,23:01～24:00,0.0453,0.0392,0.0427,
江戸川 (Edogawa),2020-06-23,22:01～23:00,0.0467,0.0402,0.0427,
江戸川 (Edogawa),2020-06-23,21:01～22:00,0.0452,0.0388,0.0427,
江戸川 (Edogawa),2020-06-23,20:01～21:00,0.0466,0.0385,0.0428,
江戸川 (Edogawa),2020-06-23,19:01～20:00,0.0467,0.0405,0.0429,
江戸川 (Edogawa),2020-06-23,18:01～19:00,0.0460,0.0389,0.0430,
江戸川 (Edogawa),2020-06-23,17:01～18:00,0.0464,0.0404,0.0429,
江戸川 (Edogawa),2020-06-23,16:01～17:00,0.0464,0.0401,0.0430,
江戸川 (Edogawa),2020-06-23,15:01～16:00,0.0454,0.0396,0.0428,
江戸川 (Edogawa),2020-06-23,14:01～15:00,0.0453,0.0398,0.0425,
江戸川 (Edogawa),2020-06-23,13:01～14:00,0.0460,0.0374,0.0426,
江戸川 (Edogawa),2020-06-23,12:01～13:00,0.0451,0.0403,0.0426,
江戸川 (Edogawa),2020-06-23,11:01～12:00,0.0463,0.0397,0.0428,
江戸川 (Edogawa),2020-06-23,10:01～11:00,0.0456,0.0401,0.0427,
江戸川 (Edogawa),2020-06-23,09:01～10:00,0.0472,0.0412,0.0435,
江戸川 (Edogawa),2020-06-23,08:01～09:00,0.0494,0.0426,0.0461,
江戸川 (Edogawa),2020-06-23,07:01～08:00,0.0520,0.0438,0.0479,
江戸川 (Edogawa),2020-06-23,06:01～07:00,0.0500,0.0424,0.0463,
江戸川 (Edogawa),2020-06-23,05:01～06:00,0.0512,0.0440,0.0472,
江戸川 (Edogawa),2020-06-23,04:01～05:00,0.0487,0.0424,0.0455,
江戸川 (Edogawa),2020-06-23,03:01～04:00,0.0476,0.0432,0.0451,
江戸川 (Edogawa),2020-06-23,02:01～03:00,0.0491,0.0425,0.0455,
江戸川 (Edogawa),2020-06-23,01:01～02:00,0.0498,0.0428,0.0462,
江戸川 (Edogawa),2020-06-23,00:01～01:00,0.0500,0.0431,0.0463,
江戸川 (Edogawa),2020-06-22,23:01～24:00,0.0496,0.0422,0.0457,
江戸川 (Edogawa),2020-06-22,22:01～23:00,0.0502,0.0425,0.0454,
江戸川 (Edogawa),2020-06-22,21:01～22:00,0.0490,0.0425,0.0464,
江戸川 (Edogawa),2020-06-22,20:01～21:00,0.0503,0.0441,0.0471,
江戸川 (Edogawa),2020-06-22,19:01～20:00,0.0499,0.0443,0.0469,
江戸川 (Edogawa),2020-06-22,18:01～19:00,0.0533,0.0448,0.0486,
江戸川 (Edogawa),2020-06-22,17:01～18:00,0.0588,0.0466,0.0534,
江戸川 (Edogawa),2020-06-22,16:01～17:00,0.0607,0.0506,0.0552,
江戸川 (Edogawa),2020-06-22,15:01～16:00,0.0568,0.0475,0.0521,
江戸川 (Edogawa),2020-06-22,14:01～15:00,0.0606,0.0524,0.0552,
江戸川 (Edogawa),2020-06-22,13:01～14:00,0.0575,0.0511,0.0541,
江戸川 (Edogawa),2020-06-22,12:01～13:00,0.0577,0.0494,0.0529,
江戸川 (Edogawa),2020-06-22,11:01～12:00,0.0539,0.0442,0.0486,
江戸川 (Edogawa),2020-06-22,10:01～11:00,0.0490,0.0411,0.0458,
江戸川 (Edogawa),2020-06-22,09:01～10:00,0.0512,0.0428,0.0466,
江戸川 (Edogawa),2020-06-22,08:01～09:00,0.0517,0.0427,0.0476,
江戸川 (Edogawa),2020-06-22,07:01～08:00,0.0487,0.0394,0.0450,
江戸川 (Edogawa),2020-06-22,06:01～07:00,0.0483,0.0392,0.0437,
江戸川 (Edogawa),2020-06-22,05:01～06:00,0.0459,0.0405,0.0434,
江戸川 (Edogawa),2020-06-22,04:01～05:00,0.0470,0.0396,0.0436,
江戸川 (Edogawa),2020-06-22,03:01～04:00,0.0458,0.0410,0.0433,
江戸川 (Edogawa),2020-06-22,02:01～03:00,0.0463,0.0396,0.0430,
江戸川 (Edogawa),2020-06-22,01:01～02:00,0.0471,0.0400,0.0432,
江戸川 (Edogawa),2020-06-22,00:01～01:00,0.0464,0.0413,0.0433,
